Location: Guferjoch
(46.7462°N, 8.4506°E)
Time: 13:05:07
(UTC+00:00)

Lacrosse 5 - Pass Details

Date: 14 July 2020
Orbit: 717 x 720 km, 57.0° (Epoch: 04 August)

Event Time Altitude Azimuth Distance (km) Brightness Sun altitude
Exits shadow 00:10:41 32° 244° (WSW) 1,214 2.7 -21.1°
Maximum altitude 00:13:01 75° 324° (NW) 747 1.9 -21.0°
Drops below altitude 10° 00:18:06 10° 50° (NE) 2,208 5.1 -20.8°
Sets 00:20:30 0° 52° (NE) 3,131 6.0 -20.8°
